Flag for Greenland

Past Weather in Ilulissat, Greenland — Yesterday and Last 2 Weeks

Now
41 °F

Passing clouds.


Feels Like: 33 °F
Forecast: N/A
Wind: 16 mph from Southeast

Location: Jacobshavn Lufthavn
Current Time: Oct 1, 2020 at 9:52:16 pm
Latest Report: Oct 1, 2020 at 8:50 pm
Visibility: N/A
Pressure29.15 "Hg
Humidity: 53%
Dew Point: 25 °F
Location of IlulissatLocation

Past Weather in Ilulissat — Graph

°F

Ilulissat Temperature Yesterday

Maximum temperature yesterday: 30 °F (at 11:50 am)
Minimum temperature yesterday: 18 °F (at 8:50 pm)
Average temperature yesterday: 26 °F

High & Low Weather Summary for the Past Weeks

 TemperatureHumidityPressure
High43 °F (Sep 25, 11:50 am)93% (Sep 16, 7:50 pm)30.21 "Hg (Sep 16, 7:50 pm)
Low18 °F (Sep 30, 8:50 pm)31% (Sep 24, 9:50 am)29.12 "Hg (Sep 25, 7:50 am)
Average30 °F68%29.70 "Hg
* Reported Sep 16 7:50 pm — Oct 1 7:50 pm, Ilulissat. Weather by CustomWeather, © 2020

Note: Actual official high and low records may vary slightly from our data, if they occured in-between our weather recording intervals... More about our weather records

Ilulissat Weather History for the Previous 24 Hours

Scroll right to see more
 ConditionsComfort  
Time TempWeatherWind HumidityBarometerVisibility
7:50 pm
Thu, Oct 1
41 °FPassing clouds.16 mph53%29.21 "HgN/A
6:50 pm41 °FQuite cool.20 mph49%29.24 "HgN/A
5:50 pm41 °FPartly sunny.20 mph42%29.27 "HgN/A
4:50 pm39 °FPartly sunny.15 mph45%29.30 "HgN/A
3:50 pm37 °FScattered clouds.15 mph45%29.33 "HgN/A
2:50 pm37 °FPassing clouds.16 mph41%29.36 "HgN/A
1:50 pm37 °FPassing clouds.17 mph38%29.39 "HgN/A
12:50 pm37 °FPassing clouds.15 mph35%29.45 "HgN/A
11:50 am34 °FSunny.6 mph38%29.53 "HgN/A
10:50 am30 °FSunny.13 mph40%29.59 "HgN/A
9:50 am28 °FSunny.14 mph40%29.62 "HgN/A
8:50 am23 °FSunny.5 mph50%29.68 "HgN/A
7:50 am19 °FSunny.9 mph49%29.74 "HgN/A
6:50 am19 °FCold.9 mph49%29.80 "HgN/A
5:50 am19 °FCold.9 mph53%29.86 "HgN/A
4:50 am19 °FCold.12 mph53%29.89 "HgN/A
3:50 am19 °FCold.10 mph58%29.92 "HgN/A
2:50 am19 °FCold.10 mph58%29.95 "HgN/A
1:50 am19 °FCold.14 mph58%29.95 "HgN/A
12:50 am19 °FCold.8 mph63%29.98 "HgN/A
11:50 pm
Wed, Sep 30
19 °FCold.7 mph58%29.95 "HgN/A
10:50 pm19 °FCold.9 mph58%29.98 "HgN/A
9:50 pm19 °FCold.3 mph63%29.98 "HgN/A
Weather by CustomWeather, © 2020

See weather overview